#timestamp,LO_Frequency,Hit,StdDev 
1555833615.6,286046996.5,P
1555833635.5,286046999.5,N
1555833655.6,286046996.6,N
1555833675.4,286046997.2,N
1555833695.3,286046998.0,N
1555833715.1,286046995.5,Y
1555833735.8,286046996.9,P
1555833755.7,286046996.8,P
1555833775.5,286046996.8,P
1555833795.4,286046999.4,N
1555833815.2,286046998.3,N
1555833835.0,286047000.8,N
1555833835.9,286047000.8,N
1555833855.8,286047001.1,N
1555833875.6,286046998.7,N
1555833895.4,286046998.6,N
1555833915.3,286046998.2,N
1555833935.1,286046998.3,N
1555833955.9,286046998.7,N
1555833975.7,286047000.7,N
1555833995.5,286046998.5,N
1555834015.4,286046996.5,N
1555834035.2,286046999.1,N
1555834055.0,286046998.8,N
1555834056.0,286046998.8,N
1555834075.8,286046998.1,N
1555834095.6,286046998.6,N
1555834115.5,286047001.1,N
1555834135.3,286046998.4,N
1555834155.1,286047000.6,N
1555834175.9,286046998.7,N
1555834195.7,286046998.1,N
1555834215.5,286047000.7,N
1555834235.4,286046998.2,N
1555834255.2,286046998.2,N
1555834275.1,286047002.5,N
1555834276.0,286047002.5,N
1555834295.8,286047000.4,N
1555834315.6,286047002.1,N
1555834335.5,286047000.1,N
1555834355.3,286047002.3,N
1555834375.1,286046998.2,N
1555834395.9,286046999.9,N
1555834415.7,286047000.5,N
1555834435.6,286046998.9,N
1555834455.4,286046996.7,N
1555834475.2,286046997.3,N
1555834495.1,286046998.3,N
1555834496.0,286046998.3,N
1555834515.8,286047000.8,N
1555834535.6,286046999.1,N
1555834555.5,286046997.8,N
1555834575.3,286046997.0,N
1555834595.2,286046996.7,N
1555834615.9,286047001.2,N
1555834635.7,286047000.1,N
1555834655.6,286046999.7,N
1555834675.4,286047000.9,N
1555834695.2,286047000.6,N
1555834715.1,286047000.5,N
1555834716.0,286047000.5,N
1555834735.8,286047000.3,N
1555834755.7,286047001.0,N
1555834775.5,286046996.5,N
1555834795.3,286046999.0,N
1555834815.2,286046998.5,N
1555834835.0,286047001.6,N
1555834835.9,286047001.6,N
1555834855.7,286046999.8,N
1555834875.8,286046998.8,N
1555834895.7,286046999.1,N
1555834915.5,286046997.4,N
1555834935.3,286046997.6,N
1555834955.2,286046996.6,N
1555834975.0,286046999.3,N
1555834975.9,286046999.3,N
1555834995.8,286047001.0,N
1555835015.6,286046998.4,N
1555835035.4,286047000.9,N
1555835055.3,286047001.1,N
1555835075.1,286047000.4,N
1555835095.9,286046999.5,N
1555835115.7,286046998.9,N
1555835135.5,286046998.1,N
1555835155.4,286046997.0,N
1555835175.2,286047001.1,N
1555835195.1,286047000.8,N
1555835196.0,286047000.8,N
1555835215.8,286047002.1,N
1555835235.6,286047004.0,N
1555835255.4,286047006.0,Y
1555835275.2,286047004.8,P
1555835295.0,286047003.4,N
1555835296.0,286047003.4,N
1555835315.8,286047001.4,N
1555835335.6,286047000.1,N
1555835355.5,286046998.5,N
1555835375.3,286047000.0,N
1555835395.1,286047002.4,N
1555835415.2,286047005.6,N
1555835435.3,286047004.7,N
1555835455.2,286047005.2,N
1555835475.0,286047006.0,N
1555835475.9,286047006.0,N
1555835495.1,286047002.4,N
1555835515.3,286047001.5,N
1555835535.1,286047000.9,N
1555835536.0,286047000.9,N
1555835555.8,286047000.9,N
1555835575.7,286047000.4,N
1555835595.5,286046999.4,N
1555835615.3,286046999.9,N
1555835635.2,286046999.8,N
1555835655.0,286047001.8,N
1555835655.9,286047001.8,N
1555835675.8,286047007.5,Y
1555835695.6,286047004.2,P
1555835715.4,286047002.5,N
1555835735.3,286046998.3,N
1555835755.1,286046999.0,N
1555835775.9,286047001.4,N
1555835795.7,286047003.5,N
1555835815.5,286047002.9,N
1555835835.4,286047004.5,N
1555835855.2,286047002.9,N
1555835875.0,286047002.9,N
1555835875.9,286047002.9,N
1555835895.8,286047003.5,N
1555835915.6,286047002.3,N
1555835935.5,286047003.4,N
1555835955.3,286047004.0,N
1555835975.1,286047001.6,N
1555835995.9,286047001.9,N
1555836015.7,286047002.7,N
1555836035.5,286047002.7,N
1555836055.4,286046999.9,N
1555836075.9,286047002.8,N
1555836095.7,286047002.1,N
1555836115.5,286047002.0,N
1555836135.4,286047003.8,N
1555836155.2,286047003.4,N
1555836175.1,286047007.4,Y
1555836176.0,286047007.4,P
1555836195.8,286047001.5,N
1555836215.6,286047001.1,N
1555836235.5,286046999.1,N
1555836255.3,286046998.8,N
1555836275.2,286046997.5,N
1555836295.9,286046997.4,N
1555836315.7,286046997.2,N
1555836335.6,286046995.6,N
1555836355.4,286046997.9,N
1555836375.2,286046997.5,N
1555836395.1,286046997.5,N
1555836396.0,286046997.5,N
1555836415.8,286046996.9,N
1555836435.7,286046999.0,N
1555836455.5,286046998.5,N
1555836475.3,286046995.0,N
1555836495.2,286046997.8,N
1555836515.0,286046998.0,N
1555836515.9,286046998.0,N
1555836535.7,286046995.0,N
1555836555.6,286046995.0,N
1555836575.4,286046996.9,N
1555836595.3,286046998.6,N
1555836615.1,286046999.5,N
1555836616.0,286046999.5,N
1555836635.8,286046997.8,N
1555836655.7,286046995.3,N
1555836675.5,286046997.5,N
1555836695.3,286046998.3,N
1555836715.2,286047001.1,N
1555836735.0,286047002.6,N
1555836735.9,286047002.6,N
1555836755.8,286047002.2,N
1555836775.6,286047002.4,N
1555836795.4,286046998.6,N
1555836815.3,286046999.4,N
1555836835.1,286047001.1,N
1555836855.8,286046998.2,N
1555836875.7,286046998.2,N
1555836895.5,286047000.0,N
1555836915.4,286047002.0,N
1555836935.2,286047001.3,N
1555836955.0,286047002.5,N
1555836955.9,286047002.5,N
1555836975.8,286047000.1,N
1555836995.6,286046998.6,N
1555837015.4,286046997.1,N
1555837035.3,286046997.5,N
1555837055.1,286046997.1,N
1555837075.9,286046998.3,N
1555837095.7,286046997.1,N
1555837115.5,286046998.1,N
1555837135.4,286047001.2,N
1555837155.2,286046998.6,N
1555837175.0,286047000.0,N
1555837176.0,286047000.0,N
1555837195.8,286046999.9,N
